sat.trackr.live / text

‹ back to catalog

ONEWEB-0378

NORAD 49304 · 2021-090AB

PAYLOAD ACTIVE UNKNOWN

§ Identity

Operator
Country
UK
Launch date
2021-10-14
Launch site
VOSTO
Launch vehicle
Mass (kg)
RCS (m²)

Purposes: comms

External: N2YO · Heavens-Above · Gunter

§ Orbital elements

Epoch: 2026-05-25T01:50:38.994144Z

Period
109.03 min
Inclination
87.9170°
Eccentricity
0.0001991
Mean motion
13.20773555 rev/d
Perigee alt
1,180.3 km
Apogee alt
1,183.3 km
Semi-major
7,559.9 km
B*
-5.5757e-6
RAAN
279.0491°
Arg perigee
96.7228°
Mean anomaly
263.4132°
Rev number
22,673

§ Raw data

ONEWEB-03781 49304U 21090AB  26145.07684021  .00000011  00000+0 -55757-5 0  99942 49304  87.9170 279.0491 0001991  96.7228 263.4132 13.20773555226739

JSON: /api/v1/satellites/49304 · /tle

For live sub-satellite position, see the globe view (requires WebGL).

§ Visibility from observer

Set your observer location to see the next 7 days of passes ≥ 10°. The values pass through the URL so the page stays shareable.

No JS? Fill the form by hand. The geolocation button needs JavaScript.